Location: Delettes
(50.6178°N, 2.2123°E)
Time: 17:45:51
(UTC+00:00)

Cosmos 1656 Rocket - Pass Details

Date: 27 February 2020
Orbit: 794 x 848 km, 71.1° (Epoch: 31 March)

Event Time Altitude Azimuth Distance (km) Brightness Sun altitude
Rises 18:17:02 0° 198° (SSW) 3,325 7.1 -8.5°
Reaches altitude 10° 18:19:26 10° 195° (SSW) 2,405 6.3 -8.9°
Maximum altitude 18:24:54 67° 114° (ESE) 897 3.6 -9.8°
Drops below altitude 10° 18:30:29 10° 33° (NNE) 2,458 5.8 -10.6°
Sets 18:32:57 0° 31° (NNE) 3,403 6.5 -11.0°
